This is the latest recevied weather packets stored in our database for station/object WD8INF-9. If no packets are shown the sender has not sent any weather packets the latest 10 day(s).
| Time | Temp. | Humidity | Pressure | Rain* | Wind** | Luminosity | Snow |
|---|---|---|---|---|---|---|---|
| 1778258015 | 25° C | - | 1011.8 hPa | 0 mm | - | - | - |
| 1778257715 | 25.56° C | - | 1011.4 hPa | 0 mm | - | - | - |
| 1778257414 | 26.11° C | - | 1011.9 hPa | 0 mm | - | - | - |
| 1778257114 | 25.56° C | - | 1011.5 hPa | 0 mm | - | - | - |
| 1778256813 | 26.11° C | - | 1011.9 hPa | 0 mm | - | - | - |
| 1778256513 | 23.89° C | - | 1011.6 hPa | 0 mm | - | - | - |
| 1778256210 | 26.11° C | - | 1012 hPa | 0 mm | - | - | - |
| 1778255910 | 24.44° C | - | 1011.9 hPa | 0 mm | - | - | - |
| 1778255609 | 23.89° C | - | 1012.1 hPa | 0 mm | - | - | - |
| 1778255309 | 23.33° C | - | 1012.1 hPa | 0 mm | - | - | - |
| 1778255008 | 23.89° C | - | 1012.4 hPa | 0 mm | - | - | - |
| 1778254708 | 24.44° C | - | 1012.2 hPa | 0 mm | - | - | - |
| 1778254408 | 23.89° C | - | 1012.1 hPa | 0 mm | - | - | - |
| 1778254108 | 25.56° C | - | 1012.6 hPa | 0 mm | - | - | - |
| 1778253808 | 22.78° C | - | 1012.6 hPa | 0 mm | - | - | - |
| 1778253507 | 23.89° C | - | 1012.3 hPa | 0 mm | - | - | - |
| 1778253207 | 23.33° C | - | 1012.1 hPa | 0 mm | - | - | - |
| 1778252907 | 23.89° C | - | 1012.6 hPa | 0 mm | - | - | - |
| 1778252606 | 25° C | - | 1012.4 hPa | 0 mm | - | - | - |
| 1778252306 | 23.33° C | - | 1012.4 hPa | 0 mm | - | - | - |
| 1778252006 | 23.33° C | - | 1012.3 hPa | 0 mm | - | - | - |
| 1778251706 | 21.67° C | - | 1012.8 hPa | 0 mm | - | - | - |
| 1778251406 | 21.67° C | - | 1012.5 hPa | 0 mm | - | - | - |
| 1778251106 | 22.22° C | - | 1012.9 hPa | 0 mm | - | - | - |
| 1778250805 | 22.78° C | - | 1012.7 hPa | 0 mm | - | - | - |
* Rain since midnight (hover to see other rain measurements)
** Current wind speed in m/s (hover to see current wind gust speed)